STARLINK-34112 (63969 NORAD) Tracking and Keplerian Element Data

This shows tracking and keplerian element data for the satellite.

Feedback or suggestion? Click here.




ElementValue
Catalog63969
NameSTARLINK-34112
Epoch Orbit3517
Epoch Day354.1340742
Epoch Year2025
RAAN265.131
Inclination43.0007
Eccentricity0.0001182
Argument of Perigee282.6377
Mean Anonmoly77.4342
Mean Motion15.27588868
Decay Rate0.00014599
L11 63969U 25099T 25354.13407420 .00014599 00000+0 53885-3 0 9997
L22 63969 43.0007 265.1310 0001182 282.6377 77.4342 15.27588868 35175



Live tracking and technical data element details for STARLINK-34112 (NORAD 63969). STARLINK-34112 can be tracked NOW for your location showing map with azimuth and elevation plus other details from your city location.







IsCatalogInMostPopularTable: catalog: 63969, numindb: 2
Update: records affected: 1



GetName: 63969 STARLINK-34112

Hit Count: updated at: Sat, 07 Feb 2026 08:24:47 GMT